This is the latest recevied weather packets stored in our database for station/object DL9GRB-13. If no packets are shown the sender has not sent any weather packets the latest 1 day(s).
| Time | Temp. | Humidity | Pressure | Rain* | Wind** | Luminosity | Snow |
|---|---|---|---|---|---|---|---|
| 1778054828 | 10.56° C | 71% | 1007.1 hPa | 0 mm | - | 153 W/m² | - |
| 1778054648 | 10.56° C | 70% | 1007.3 hPa | 0 mm | - | 149 W/m² | - |
| 1778054288 | 10.56° C | 69% | 1007.3 hPa | 0 mm | - | 151 W/m² | - |
| 1778054108 | 10.56° C | 69% | 1007.1 hPa | 0 mm | - | 155 W/m² | - |
| 1778053928 | 10.56° C | 69% | 1007.1 hPa | 0 mm | - | 161 W/m² | - |
| 1778053748 | 10.56° C | 68% | 1007.1 hPa | 0 mm | - | 167 W/m² | - |
| 1778053568 | 10.56° C | 69% | 1007.2 hPa | 0 mm | - | 171 W/m² | - |
| 1778053388 | 10.56° C | 68% | 1007.2 hPa | 0 mm | - | 177 W/m² | - |
| 1778053028 | 10.56° C | 68% | 1007 hPa | 0 mm | - | 179 W/m² | - |
| 1778052848 | 10.56° C | 68% | 1007.3 hPa | 0 mm | - | 176 W/m² | - |
| 1778052668 | 10.56° C | 67% | 1007.2 hPa | 0 mm | - | 172 W/m² | - |
| 1778052488 | 10.56° C | 68% | 1007.2 hPa | 0 mm | - | 168 W/m² | - |
| 1778052308 | 10.56° C | 67% | 1007.5 hPa | 0 mm | - | 164 W/m² | - |
| 1778052128 | 10.56° C | 67% | 1007.4 hPa | 0 mm | - | 163 W/m² | - |
| 1778051768 | 10° C | 67% | 1007.2 hPa | 0 mm | - | 163 W/m² | - |
| 1778051588 | 10° C | 67% | 1007.1 hPa | 0 mm | - | 163 W/m² | - |
| 1778051408 | 10° C | 67% | 1007.3 hPa | 0 mm | - | 161 W/m² | - |
| 1778051228 | 10° C | 67% | 1007.1 hPa | 0 mm | - | 157 W/m² | - |
| 1778051048 | 10° C | 67% | 1007.2 hPa | 0 mm | - | 151 W/m² | - |
| 1778050868 | 10° C | 67% | 1007.4 hPa | 0 mm | - | 145 W/m² | - |
| 1778050688 | 10° C | 66% | 1007.2 hPa | 0 mm | - | 138 W/m² | - |
| 1778050508 | 10° C | 67% | 1007.3 hPa | 0 mm | - | 134 W/m² | - |
| 1778050328 | 10° C | 66% | 1007.3 hPa | 0 mm | - | 131 W/m² | - |
| 1778050148 | 10° C | 67% | 1007.4 hPa | 0 mm | - | 130 W/m² | - |
| 1778049968 | 10° C | 68% | 1007.2 hPa | 0 mm | - | 129 W/m² | - |
* Rain latest hour (hover to see other rain measurements)
** Current wind speed in m/s (hover to see current wind gust speed)